Simultaneous Nadir Overpasses (SNOs) Predictions

Prediction of SNOs between FY3D and AQUA Satellite Orbit:

Table of predicted SNOs for the next 14.0 days since TLE Epoch: 7/27/2024
Index Date (FY3D) Time (FY3D) Lat,Lon (FY3D) SZA (FY3D ) Date (AQUA) Time (AQUA) Lat,Lon (AQUA) SZA (AQUA ) Distance(km) Time Diff (sec)
1 07/29/2024 07:14:12 -79.44,-126.57 118.56 07/29/2024 07:14:22 -79.44,-126.61 118.56 0.95 10
2 07/29/2024 08:04:49 79.14, 43.16 61.01 07/29/2024 08:03:36 79.15, 43.04 61.05 2.85 73
3 07/31/2024 18:27:09 -79.64, 63.42 117.65 07/31/2024 18:28:22 -79.64, 63.54 117.68 2.41 73
4 07/31/2024 19:17:47 79.39,-127.03 61.98 07/31/2024 19:17:37 79.39,-127.03 61.98 0.20 10
5 08/03/2024 06:30:43 79.58, 63.20 62.89 08/03/2024 06:31:35 79.57, 63.31 62.86 2.45 52
6 08/03/2024 07:21:21 -79.37,-127.68 117.42 08/03/2024 07:20:51 -79.36,-127.55 117.43 2.99 30
7 08/05/2024 18:34:15 -79.50, 63.07 116.57 08/05/2024 18:34:47 -79.50, 63.02 116.58 1.23 32
8 08/05/2024 19:24:55 79.30,-127.98 63.15 08/05/2024 19:24:03 79.30,-127.88 63.15 2.14 52
9 08/08/2024 06:37:47 79.41, 63.00 63.99 08/08/2024 06:37:56 79.42, 62.88 64.00 2.67 9



Historial Predications of SNOs between FY3D and AQUA
